Weather History for Palma De Mallorca / Son San Juan, Spain

Change the Weather History Date:

Tuesday, May 14, 2013

  Actual Average Record
Temperature  
Mean Temperature 66 °F -  
Max Temperature 77 °F 77 °F - ()
Min Temperature 55 °F 56 °F - ()
Cooling Degree Days 1    
Growing Degree Days 16 (Base 50)    
Moisture  
Dew Point 56 °F    
Average Humidity 73    
Maximum Humidity 94    
Minimum Humidity 47    
Precipitation  
Precipitation 0.00 in 0.03 in - ()
Sea Level Pressure  
Sea Level Pressure 29.93 in    
Wind  
Wind Speed 4 mph ()    
Max Wind Speed 15 mph    
Max Gust Speed 16 mph    
Visibility 6.9 miles    
Events      
T = Trace of Precipitation, MM = Missing Value Source: Averaged Metar Reports

Daily Weather History Graph

Daily Weather History Graph

Search for Another Location

Airport:

Trip Planner

Search our weather history database for the weather conditions in past years. The results will help you decide how hot, cold, wet, or windy it might be!

Date:

Astronomy

May. 14, 2013 Rise Set
Actual Time 6:35 AM CEST 8:55 PM CEST
Civil Twilight 6:05 AM CEST 9:25 PM CEST
Nautical Twilight 5:28 AM CEST 10:03 PM CEST
Astronomical Twilight 4:47 AM CEST 10:44 PM CEST
Moon 10:01 AM CEST (5/14) No Moon Set
Length of Visible Light 15h 20m
Length of Day
14h 19m
Waxing Crescent, 17% of the Moon is Illuminated
May 14
Waxing Crescent
May 18
First Quarter
May 25
Full
May 31
Last Quarter
Jun 8
New

Hourly Weather History & Observations

Time (CEST) Temp. Dew Point Humidity Pressure Visibility Wind Dir Wind Speed Gust Speed Precip Events Conditions
12:00 AM 57.2 °F 53.6 °F 88% 30.06 in - NE 1.2 mph - N/A   Clear
12:30 AM 59.0 °F 55.4 °F 88% 30.09 in - Calm Calm - N/A   Clear
1:00 AM 57.2 °F 53.6 °F 88% 30.09 in - NE 1.2 mph - N/A   Clear
1:30 AM 57.2 °F 53.6 °F 88% 30.09 in - Calm Calm - N/A   Clear
2:00 AM 57 °F 53 °F 82% 30.10 in 9 mi Calm Calm - -   Clear
2:00 AM 57.2 °F 53.6 °F 88% 30.09 in - ENE 1.2 mph - N/A   Clear
2:30 AM 57.2 °F 53.6 °F 88% 30.06 in - NE 3.5 mph - N/A   Clear
3:00 AM 59.0 °F 55.4 °F 88% 30.06 in 6.2 mi ENE 3.5 mph - N/A   Partly Cloudy
3:30 AM 59.0 °F 57.2 °F 94% 30.04 in 6.2 mi ENE 3.5 mph - N/A   Partly Cloudy
4:00 AM 60.8 °F 57.2 °F 88% 30.01 in 6.2 mi Variable 1.2 mph - N/A   Partly Cloudy
4:30 AM 60.8 °F 57.2 °F 88% 30.01 in 6.2 mi East 1.2 mph - N/A   Partly Cloudy
5:00 AM 59.0 °F 55.4 °F 88% 30.01 in 6.2 mi Calm Calm - N/A   Partly Cloudy
5:30 AM 57.2 °F 55.4 °F 94% 29.98 in 6.2 mi NE 8.1 mph - N/A   Partly Cloudy
6:00 AM 55.4 °F 53.6 °F 94% 29.98 in 6.2 mi ENE 8.1 mph - N/A   Partly Cloudy
6:30 AM 55.4 °F 53.6 °F 94% 29.98 in - NE 2.3 mph - N/A   Clear
7:00 AM 57.2 °F 55.4 °F 94% 29.98 in - Variable 2.3 mph - N/A   Clear
7:30 AM 60.8 °F 55.4 °F 82% 29.98 in - Variable 1.2 mph - N/A   Clear
8:00 AM 61 °F 55 °F 73% 30.01 in 12 mi ESE 1.2 mph - -   Clear
8:00 AM 60.8 °F 55.4 °F 82% 30.01 in - Calm Calm - N/A   Clear
8:30 AM 60.8 °F 57.2 °F 88% 30.01 in 6.2 mi Variable 2.3 mph - N/A   Partly Cloudy
9:00 AM 64.4 °F 57.2 °F 77% 29.98 in 6.2 mi NE 3.5 mph - N/A   Partly Cloudy
9:30 AM 66.2 °F 57.2 °F 73% 29.98 in 6.2 mi NE 5.8 mph - N/A   Partly Cloudy
10:00 AM 68.0 °F 57.2 °F 68% 29.98 in 6.2 mi NNE 4.6 mph - N/A   Partly Cloudy
10:30 AM 71.6 °F 57.2 °F 60% 29.98 in 6.2 mi NE 2.3 mph - N/A   Partly Cloudy
11:00 AM 71.6 °F 53.6 °F 53% 29.98 in 6.2 mi East 1.2 mph - N/A   Partly Cloudy
12:00 PM 71.6 °F 55.4 °F 57% 29.98 in 6.2 mi SSW 4.6 mph 16.1 mph N/A   Partly Cloudy
12:30 PM 68.0 °F 57.2 °F 68% 29.95 in - SSW 9.2 mph - N/A   Clear
1:00 PM 69.8 °F 57.2 °F 64% 29.95 in - SW 8.1 mph - N/A   Clear
1:30 PM 69.8 °F 59.0 °F 68% 29.92 in 6.2 mi WSW 9.2 mph - N/A   Partly Cloudy
2:00 PM 72 °F 58 °F 51% 29.92 in 16 mi SW 15.0 mph - -   Scattered Clouds
2:00 PM 71.6 °F 59.0 °F 64% 29.92 in 6.2 mi WSW 12.7 mph - N/A   Partly Cloudy
2:30 PM 73.4 °F 60.8 °F 65% 29.89 in 6.2 mi SSW 10.4 mph - N/A   Partly Cloudy
3:00 PM 73.4 °F 60.8 °F 65% 29.89 in 6.2 mi SSE 9.2 mph - N/A   Partly Cloudy
3:30 PM 77.0 °F 57.2 °F 50% 29.86 in 6.2 mi SE 11.5 mph - N/A   Partly Cloudy
4:00 PM 75.2 °F 57.2 °F 53% 29.86 in 6.2 mi SSE 12.7 mph - N/A   Partly Cloudy
4:30 PM 77.0 °F 55.4 °F 47% 29.86 in 6.2 mi SE 12.7 mph - N/A   Partly Cloudy
5:00 PM 73.4 °F 55.4 °F 53% 29.83 in 6.2 mi SE 12.7 mph - N/A   Partly Cloudy
5:30 PM 71.6 °F 55.4 °F 57% 29.83 in 6.2 mi SE 13.8 mph - N/A   Partly Cloudy
6:00 PM 71.6 °F 55.4 °F 57% 29.80 in 6.2 mi SSE 13.8 mph - N/A   Partly Cloudy
6:30 PM 69.8 °F 55.4 °F 60% 29.80 in 6.2 mi SSE 12.7 mph - N/A   Partly Cloudy
7:00 PM 69.8 °F 53.6 °F 56% 29.80 in 6.2 mi SSE 10.4 mph - N/A   Partly Cloudy
7:30 PM 68.0 °F 55.4 °F 64% 29.77 in 6.2 mi South 8.1 mph - N/A   Partly Cloudy
8:00 PM 68 °F 54 °F 51% 29.78 in 16 mi SSE 10.4 mph - -   Scattered Clouds
8:00 PM 68.0 °F 55.4 °F 64% 29.77 in 6.2 mi SSE 9.2 mph - N/A   Partly Cloudy
9:00 PM 66.2 °F 55.4 °F 68% 29.74 in 6.2 mi ESE 6.9 mph - N/A   Partly Cloudy
9:30 PM 64.4 °F 55.4 °F 73% 29.77 in 6.2 mi Variable 2.3 mph - N/A   Partly Cloudy
10:00 PM 62.6 °F 55.4 °F 77% 29.77 in 6.2 mi ESE 4.6 mph - N/A   Partly Cloudy
10:30 PM 62.6 °F 55.4 °F 77% 29.77 in 6.2 mi Variable 2.3 mph - N/A   Partly Cloudy
11:00 PM 60.8 °F 55.4 °F 82% 29.77 in 6.2 mi East 3.5 mph - N/A   Partly Cloudy
11:30 PM 59.0 °F 55.4 °F 88% 29.77 in 6.2 mi NNE 4.6 mph - N/A   Scattered Clouds